EA8CHC Sevilla ES current weather conditions

sailwx.info

Wind from 216 at 2 knots gusting 6

Air temperature 17.8° C
Dewpoint 12.4° C

Last reported at 2017-Apr-24 01:07 UTC.
Time now 2017-Apr-24 01:41 UTC

Location: N 37°26' W 006°03'.
View on Google Maps.

See reports from other nearby stations

  
Tides and Currents Weather Stations Pressure Air Temp Water Temp Dewpoint Dewpoint Depression Visibility Wind Speed Wind Dir Waves Ship Positions
date/time (UTC)wind fromknots sea level pressurealtimeterstation pressurevisibilityair tempwater tempwave heightnotes
2017-Apr-24 01:07 216 2 gusting 6 17.8
2017-Apr-24 01:02 218 1 gusting 6 17.8
2017-Apr-24 00:57 226 2 gusting 6 17.8
2017-Apr-24 00:52 242 2 gusting 6 17.8
2017-Apr-24 00:47 215 1 gusting 5 17.8
2017-Apr-24 00:42 222 1 gusting 6 17.8
2017-Apr-24 00:37 232 1 gusting 6 18.3
2017-Apr-24 00:32 234 2 gusting 5 18.3
2017-Apr-24 00:27 254 1 gusting 5 18.3
2017-Apr-24 00:22 226 1 gusting 5 18.3
2017-Apr-24 00:17 248 1 gusting 4 18.3
2017-Apr-24 00:12 185 1 gusting 4 18.3
2017-Apr-24 00:07 153 0 gusting 3 18.9
2017-Apr-24 00:02 222 0 gusting 3 18.9
2017-Apr-23 23:57 222 18.9
2017-Apr-23 23:52 223 0 gusting 3 18.9
2017-Apr-23 23:47 223 0 gusting 5 18.9
2017-Apr-23 23:42 211 1 gusting 6 19.4
2017-Apr-23 23:37 257 2 gusting 6 19.4
2017-Apr-23 23:32 273 3 gusting 6 19.4
2017-Apr-23 23:27 281 3 gusting 6 19.4
2017-Apr-23 23:22 259 3 gusting 6 19.4
2017-Apr-23 23:17 269 3 gusting 6 19.4
2017-Apr-23 23:12 244 4 gusting 6 19.4
2017-Apr-23 23:07 267 4 gusting 7 19.4
2017-Apr-23 23:02 252 5 gusting 7 19.4
2017-Apr-23 22:57 259 5 gusting 7 19.4
2017-Apr-23 22:52 279 5 gusting 8 18.9
2017-Apr-23 22:47 247 6 gusting 9 18.9
2017-Apr-23 22:42 269 6 gusting 9 18.9
2017-Apr-23 22:37 281 6 gusting 9 18.9
2017-Apr-23 22:32 265 6 gusting 9 18.9
2017-Apr-23 22:27 271 6 gusting 9 18.9
2017-Apr-23 22:22 261 6 gusting 10 18.9
2017-Apr-23 22:17 281 6 gusting 10 18.9
2017-Apr-23 22:12 269 6 gusting 10 18.9
2017-Apr-23 22:07 271 6 gusting 10 19.4
2017-Apr-23 22:02 275 6 gusting 10 19.4
2017-Apr-23 21:57 277 5 gusting 10 19.4
2017-Apr-23 21:52 265 5 gusting 9 19.4
2017-Apr-23 21:47 281 5 gusting 8 19.4
2017-Apr-23 21:42 250 5 gusting 8 19.4
2017-Apr-23 21:37 270 5 gusting 8 19.4
2017-Apr-23 21:32 269 4 gusting 8 19.4
2017-Apr-23 21:27 286 5 gusting 8 19.4
2017-Apr-23 21:22 289 6 gusting 9 19.4
2017-Apr-23 21:17 283 6 gusting 9 19.4
2017-Apr-23 21:12 270 6 gusting 10 19.4
2017-Apr-23 21:07 272 7 gusting 12 19.4
2017-Apr-23 21:02 290 7 gusting 12 20.0
2017-Apr-23 20:57 269 7 gusting 12 20.0
2017-Apr-23 20:52 278 7 gusting 12 20.0
2017-Apr-23 20:47 267 6 gusting 12 20.0
2017-Apr-23 20:42 262 6 gusting 9 20.0
2017-Apr-23 20:37 265 5 gusting 9 20.0
2017-Apr-23 20:32 299 5 gusting 9 20.6
2017-Apr-23 20:27 292 6 gusting 9 20.6
2017-Apr-23 20:22 273 6 gusting 13 21.1
2017-Apr-23 20:17 294 6 gusting 13 21.1
2017-Apr-23 20:12 250 6 gusting 13 21.1
2017-Apr-23 20:07 247 5 gusting 11 21.7
2017-Apr-23 20:02 269 6 gusting 12 21.7
2017-Apr-23 19:57 265 6 gusting 12 21.7
2017-Apr-23 19:52 246 5 gusting 12 21.7
2017-Apr-23 19:47 257 5 gusting 11 21.7
2017-Apr-23 19:42 273 5 gusting 11 22.2
2017-Apr-23 19:37 247 6 gusting 13 22.2
2017-Apr-23 19:32 239 6 gusting 13 22.2
2017-Apr-23 19:27 180 5 gusting 13 22.8
2017-Apr-23 19:22 221 5 gusting 10 22.8
2017-Apr-23 19:17 258 6 gusting 13 22.8
2017-Apr-23 19:12 217 5 gusting 13 22.8
2017-Apr-23 19:07 218 5 gusting 10 23.3
2017-Apr-23 19:02 266 5 gusting 10 23.3
2017-Apr-23 18:57 245 5 gusting 10 23.3
2017-Apr-23 18:52 242 5 gusting 10 23.9
2017-Apr-23 18:47 240 5 gusting 10 23.9
2017-Apr-23 18:42 252 5 gusting 10 23.9
2017-Apr-23 18:37 266 5 gusting 13 24.4
2017-Apr-23 18:32 245 5 gusting 13 24.4
2017-Apr-23 18:27 258 5 gusting 13 24.4
2017-Apr-23 18:22 249 5 gusting 13 24.4
2017-Apr-23 18:17 247 6 gusting 13 24.4
2017-Apr-23 18:12 236 6 gusting 13 25.0
2017-Apr-23 18:07 252 5 gusting 11 25.0
2017-Apr-23 18:02 261 6 gusting 14 25.0
2017-Apr-23 17:57 269 7 gusting 14 25.0
2017-Apr-23 17:52 254 7 gusting 14 25.6
2017-Apr-23 17:47 216 7 gusting 14 25.6
2017-Apr-23 17:42 226 6 gusting 13 25.6
2017-Apr-23 17:37 206 5 gusting 11 26.1
2017-Apr-23 17:32 221 5 gusting 11 26.7
2017-Apr-23 17:27 215 4 gusting 11 26.7
2017-Apr-23 17:22 267 3 gusting 6 27.2
2017-Apr-23 17:17 254 2 gusting 6 27.2
2017-Apr-23 17:12 317 1 gusting 5 27.2
2017-Apr-23 17:07 215 0 gusting 4 27.2
2017-Apr-23 17:02 209 0 gusting 7 27.2
2017-Apr-23 16:57 241 1 gusting 7 27.2
2017-Apr-23 16:52 253 1 gusting 7 27.2
2017-Apr-23 16:47 281 2 gusting 6 27.2
2017-Apr-23 16:42 249 2 gusting 6 27.2
2017-Apr-23 16:37 248 3 gusting 6 27.2
2017-Apr-23 16:32 214 2 gusting 5 27.2
2017-Apr-23 16:27 157 0 gusting 5 27.2
2017-Apr-23 16:22 199 0 gusting 4 27.2
2017-Apr-23 16:17 261 0 gusting 7 27.2
2017-Apr-23 16:12 261 2 gusting 7 26.7
2017-Apr-23 16:07 227 2 gusting 7 26.7
2017-Apr-23 16:02 234 1 gusting 7 26.7
2017-Apr-23 15:57 080 1 gusting 7 26.7
2017-Apr-23 15:52 123 3 gusting 9 26.7
2017-Apr-23 15:47 235 4 gusting 9 26.7
2017-Apr-23 15:42 221 3 gusting 9 26.7
2017-Apr-23 15:37 146 3 gusting 7 26.7
2017-Apr-23 15:32 164 3 gusting 13 26.7
2017-Apr-23 15:27 186 4 gusting 13 26.1
2017-Apr-23 15:22 155 5 gusting 11 26.1
2017-Apr-23 15:17 130 4 gusting 12 26.1
2017-Apr-23 15:12 157 6 gusting 12 26.7
2017-Apr-23 15:07 159 3 gusting 12 26.7
2017-Apr-23 15:02 150 2 gusting 7 26.7
2017-Apr-23 14:57 266 3 gusting 7 26.1
2017-Apr-23 14:52 275 4 gusting 10 26.1
2017-Apr-23 14:47 213 5 gusting 10 26.1
2017-Apr-23 14:42 161 5 gusting 10 26.1
2017-Apr-23 14:37 138 2 gusting 7 26.1
2017-Apr-23 14:32 234 1 gusting 4 26.1
2017-Apr-23 14:27 076 0 gusting 5 26.1
2017-Apr-23 14:22 321 1 gusting 5 26.1
2017-Apr-23 14:17 222 1 gusting 10 26.1
2017-Apr-23 14:12 211 2 gusting 10 25.6
2017-Apr-23 14:07 191 3 gusting 10 25.6
2017-Apr-23 14:02 129 2 gusting 5 25.6
2017-Apr-23 13:57 105 2 gusting 5 25.6
2017-Apr-23 13:52 071 1 gusting 5 25.6
2017-Apr-23 13:47 061 0 gusting 5 25.6
2017-Apr-23 13:42 298 0 gusting 6 25.0
2017-Apr-23 13:37 005 2 gusting 6 25.0
2017-Apr-23 13:32 080 2 gusting 6 25.0
2017-Apr-23 13:27 105 1 gusting 5 25.6
2017-Apr-23 13:22 316 0 gusting 6 25.6
2017-Apr-23 13:17 153 1 gusting 6 25.0
2017-Apr-23 13:12 203 2 gusting 6 25.0
2017-Apr-23 13:07 050 1 gusting 6 25.0
2017-Apr-23 13:02 123 1 gusting 6 25.0
2017-Apr-23 12:57 113 1 gusting 6 25.0
2017-Apr-23 12:52 178 1 gusting 6 25.0
2017-Apr-23 12:47 111 1 gusting 6 25.0
2017-Apr-23 12:42 222 0 gusting 4 25.0
2017-Apr-23 12:37 211 0 gusting 5 24.4
2017-Apr-23 12:32 176 1 gusting 5 24.4
2017-Apr-23 12:27 132 1 gusting 5 24.4
2017-Apr-23 12:22 175 0 gusting 5 23.9
2017-Apr-23 12:17 192 1 gusting 4 23.9
2017-Apr-23 12:12 122 1 gusting 4 23.9
2017-Apr-23 12:07 154 0 gusting 4 23.9
2017-Apr-23 12:02 089 0 gusting 6 23.3
2017-Apr-23 11:57 329 1 gusting 6 23.3
2017-Apr-23 11:52 311 2 gusting 6 23.3
2017-Apr-23 11:47 267 1 gusting 4 23.3
2017-Apr-23 11:42 263 0 gusting 4 23.3
2017-Apr-23 11:37 306 23.3
2017-Apr-23 11:32 094 1 gusting 6 23.3
2017-Apr-23 11:27 187 1 gusting 6 22.8
2017-Apr-23 11:22 076 1 gusting 4 22.8
2017-Apr-23 11:17 317 1 gusting 5 22.8
2017-Apr-23 11:12 355 1 gusting 5 22.8
2017-Apr-23 11:07 097 1 gusting 4 22.8
2017-Apr-23 11:02 057 1 gusting 4 22.8
2017-Apr-23 10:57 015 0 gusting 4 22.2
2017-Apr-23 10:52 282 0 gusting 5 22.2
2017-Apr-23 10:47 317 1 gusting 6 21.7
2017-Apr-23 10:42 263 2 gusting 6 21.7
2017-Apr-23 10:37 331 1 gusting 5 21.7
2017-Apr-23 10:32 027 0 gusting 4 21.7
2017-Apr-23 10:27 031 1 gusting 5 21.7
2017-Apr-23 10:22 144 1 gusting 6 21.7
2017-Apr-23 10:17 118 2 gusting 6 21.1
2017-Apr-23 10:12 090 3 gusting 6 21.1
2017-Apr-23 10:07 103 3 gusting 6 20.6
2017-Apr-23 10:02 131 2 gusting 6 20.6
2017-Apr-23 09:57 082 2 gusting 6 20.6
2017-Apr-23 09:52 074 2 gusting 8 20.0
2017-Apr-23 09:47 101 3 gusting 8 20.0
2017-Apr-23 09:42 005 2 gusting 8 20.0
2017-Apr-23 09:37 005 1 gusting 5 20.6
2017-Apr-23 09:32 088 1 gusting 5 20.0
2017-Apr-23 09:27 019 1 gusting 6 19.4
2017-Apr-23 09:22 051 2 gusting 6 19.4
2017-Apr-23 09:17 081 3 gusting 6 19.4
2017-Apr-23 09:12 017 2 gusting 6 19.4
2017-Apr-23 09:07 059 3 gusting 6 18.9
2017-Apr-23 09:02 074 3 gusting 6 18.9
2017-Apr-23 08:57 054 2 gusting 6 18.9
2017-Apr-23 08:52 035 2 gusting 6 18.9
2017-Apr-23 08:47 101 2 gusting 5 18.3
2017-Apr-23 08:42 051 2 gusting 6 18.3
2017-Apr-23 08:37 060 3 gusting 6 18.3
2017-Apr-23 08:32 068 3 gusting 6 18.3
2017-Apr-23 08:27 060 3 gusting 8 18.3
2017-Apr-23 08:22 113 3 gusting 8 18.3
2017-Apr-23 08:17 082 3 gusting 8 17.8
2017-Apr-23 08:12 060 3 gusting 8 17.8
2017-Apr-23 08:07 069 4 gusting 9 17.8
2017-Apr-23 08:02 068 5 gusting 8 17.8
2017-Apr-23 07:57 061 5 gusting 8 17.2
2017-Apr-23 07:52 052 4 gusting 6 17.2
2017-Apr-23 07:47 057 3 gusting 6 17.2
2017-Apr-23 07:42 053 3 gusting 6 17.2
2017-Apr-23 07:37 063 2 gusting 6 16.7
2017-Apr-23 07:32 053 3 gusting 6 16.7
2017-Apr-23 07:27 046 2 gusting 6 16.7
2017-Apr-23 07:22 059 0 gusting 3 16.7
2017-Apr-23 07:17 355 0 gusting 2 16.1
2017-Apr-23 07:12 300 16.1
2017-Apr-23 07:07 300 16.1
2017-Apr-23 07:02 300 15.6
2017-Apr-23 06:57 300 15.6
2017-Apr-23 06:52 300 15.6
2017-Apr-23 06:47 300 15.6
2017-Apr-23 06:42 300 15.6
2017-Apr-23 06:37 300 15.6
2017-Apr-23 06:32 300 15.6
2017-Apr-23 06:27 300 15.0
2017-Apr-23 06:22 300 15.0
2017-Apr-23 06:17 300 15.0
2017-Apr-23 06:12 300 0 gusting 2 15.0
2017-Apr-23 06:07 300 0 gusting 2 15.0
2017-Apr-23 06:02 300 0 gusting 2 15.0
2017-Apr-23 05:57 300 1 gusting 3 15.0
2017-Apr-23 05:52 300 1 gusting 3 15.0
2017-Apr-23 05:47 300 1 gusting 3 15.0
2017-Apr-23 05:42 300 0 gusting 2 15.0
2017-Apr-23 05:37 300 0 gusting 2 15.0
2017-Apr-23 05:32 300 0 gusting 2 15.0
2017-Apr-23 05:27 300 0 gusting 2 15.0
2017-Apr-23 05:22 300 15.6
2017-Apr-23 05:17 300 15.6
2017-Apr-23 05:12 300 15.6
2017-Apr-23 05:07 300 15.6
2017-Apr-23 05:02 300 15.6
2017-Apr-23 04:57 300 15.6
2017-Apr-23 04:52 300 0 gusting 2 15.6
2017-Apr-23 04:47 300 15.6
2017-Apr-23 04:42 300 15.6
2017-Apr-23 04:37 300 15.6
2017-Apr-23 04:32 300 15.6
2017-Apr-23 04:27 300 15.6
2017-Apr-23 04:22 300 15.6
2017-Apr-23 04:17 300 15.6
2017-Apr-23 04:12 300 15.6
2017-Apr-23 04:07 300 15.6
2017-Apr-23 04:02 300 15.6
2017-Apr-23 03:57 300 0 gusting 2 15.6
2017-Apr-23 03:52 300 15.6
2017-Apr-23 03:47 300 15.6
2017-Apr-23 03:42 300 15.6
2017-Apr-23 03:37 300 15.6
2017-Apr-23 03:32 300 15.6
2017-Apr-23 03:27 300 15.6
2017-Apr-23 03:22 300 15.6
2017-Apr-23 03:17 300 15.6
2017-Apr-23 03:12 300 15.6
2017-Apr-23 03:07 300 15.6
2017-Apr-23 03:02 300 15.6
2017-Apr-23 02:57 300 0 gusting 2 15.6
2017-Apr-23 02:52 300 0 gusting 2 15.6
2017-Apr-23 02:47 300 15.6
2017-Apr-23 02:42 277 0 gusting 4 15.6
2017-Apr-23 02:37 277 1 gusting 4 15.6
2017-Apr-23 02:32 277 1 gusting 3 15.6
2017-Apr-23 02:27 281 1 gusting 3 15.6
2017-Apr-23 02:22 263 0 gusting 3 15.6
2017-Apr-23 02:17 268 0 gusting 3 15.6
2017-Apr-23 02:12 289 15.6
2017-Apr-23 02:07 289 15.6
2017-Apr-23 02:02 289 0 gusting 3 15.6
2017-Apr-23 01:57 289 1 gusting 4 15.6
2017-Apr-23 01:52 259 2 gusting 4 15.6
2017-Apr-23 01:47 263 2 gusting 4 15.6
2017-Apr-23 01:42 286 0 gusting 3 15.6
2017-Apr-23 01:37 286 0 gusting 5 15.6
2017-Apr-23 01:32 286 2 gusting 5 15.6
2017-Apr-23 01:27 277 2 gusting 5 15.6
2017-Apr-23 01:22 287 1 gusting 6 15.6
2017-Apr-23 01:17 271 2 gusting 6 15.6
2017-Apr-23 01:12 294 4 gusting 6 16.1
2017-Apr-23 01:07 297 3 gusting 6 16.1
2017-Apr-23 01:02 275 3 gusting 6 16.1
2017-Apr-23 00:57 276 2 gusting 5 16.1
2017-Apr-23 00:52 273 2 gusting 5 16.1
2017-Apr-23 00:47 252 1 gusting 5 16.1
2017-Apr-23 00:42 257 0 gusting 4 16.1
2017-Apr-23 00:37 244 1 gusting 4 16.7
2017-Apr-23 00:32 237 1 gusting 4 16.7
2017-Apr-23 00:27 246 0 gusting 3 16.7
2017-Apr-23 00:22 263 16.7
2017-Apr-23 00:17 230 16.7
2017-Apr-23 00:12 231 0 gusting 4 16.7
2017-Apr-23 00:07 240 0 gusting 4 16.7
2017-Apr-23 00:02 235 1 gusting 4 16.7
2017-Apr-22 23:57 235 0 gusting 6 16.7
2017-Apr-22 23:52 220 0 gusting 6 16.7
2017-Apr-22 23:47 263 1 gusting 6 16.7
2017-Apr-22 23:42 257 1 gusting 7 16.7
2017-Apr-22 23:37 244 2 gusting 7 16.7
2017-Apr-22 23:32 257 2 gusting 8 16.7
2017-Apr-22 23:27 204 3 gusting 9 17.2
2017-Apr-22 23:22 265 3 gusting 9 17.2
2017-Apr-22 23:17 277 4 gusting 11 17.2
2017-Apr-22 23:12 252 5 gusting 11 17.2
2017-Apr-22 23:07 248 5 gusting 13 17.2
2017-Apr-22 23:02 264 6 gusting 13 17.2
2017-Apr-22 22:57 250 7 gusting 13 17.2
2017-Apr-22 22:52 277 7 gusting 13 17.2
2017-Apr-22 22:47 254 7 gusting 13 17.2
2017-Apr-22 22:42 265 7 gusting 13 17.2
2017-Apr-22 22:37 279 7 gusting 13 17.2
2017-Apr-22 22:32 248 7 gusting 13 17.2
2017-Apr-22 22:27 273 6 gusting 13 17.8
2017-Apr-22 22:22 232 6 gusting 13 17.8
2017-Apr-22 22:17 242 6 gusting 13 17.8
2017-Apr-22 22:12 246 6 gusting 13 17.8
2017-Apr-22 22:07 233 6 gusting 12 17.8
2017-Apr-22 22:02 227 6 gusting 12 17.8
2017-Apr-22 21:57 225 6 gusting 12 17.8
2017-Apr-22 21:52 277 6 gusting 13 17.8
2017-Apr-22 21:47 279 6 gusting 13 18.3
2017-Apr-22 21:42 271 6 gusting 12 18.3
2017-Apr-22 21:37 228 5 gusting 13 18.3
2017-Apr-22 21:32 169 5 gusting 13 18.3
2017-Apr-22 21:27 285 5 gusting 11 18.3
2017-Apr-22 21:22 223 5 gusting 12 18.3
2017-Apr-22 21:17 238 5 gusting 12 18.3
2017-Apr-22 21:12 259 6 gusting 12 18.9
2017-Apr-22 21:07 283 6 gusting 11 18.9
2017-Apr-22 21:02 265 6 gusting 11 18.9
2017-Apr-22 20:57 261 5 gusting 10 19.4
2017-Apr-22 20:52 245 4 gusting 8 19.4
2017-Apr-22 20:47 300 3 gusting 6 19.4
2017-Apr-22 20:42 253 2 gusting 5 20.0
2017-Apr-22 20:37 251 1 gusting 5 20.6
2017-Apr-22 20:32 252 2 gusting 6 20.6
2017-Apr-22 20:27 259 3 gusting 6 20.6
2017-Apr-22 20:22 246 3 gusting 6 20.6
2017-Apr-22 20:17 250 2 gusting 6 21.1
2017-Apr-22 20:12 277 2 gusting 6 21.1
2017-Apr-22 20:07 254 2 gusting 7 21.1
2017-Apr-22 20:02 252 3 gusting 7 21.7
2017-Apr-22 19:57 223 2 gusting 7 21.7
2017-Apr-22 19:52 172 1 gusting 6 22.2
2017-Apr-22 19:47 115 2 gusting 6 22.2
2017-Apr-22 19:42 115 2 gusting 6 22.2
2017-Apr-22 19:37 086 3 gusting 6 22.2
2017-Apr-22 19:32 073 3 gusting 6 22.2
2017-Apr-22 19:27 041 3 gusting 6 22.2
2017-Apr-22 19:22 063 2 gusting 5 22.8
2017-Apr-22 19:17 074 2 gusting 6 22.8
2017-Apr-22 19:12 093 2 gusting 6 22.8
2017-Apr-22 19:07 076 3 gusting 6 22.8
2017-Apr-22 19:02 078 3 gusting 6 23.3
2017-Apr-22 18:57 065 3 gusting 8 23.3
2017-Apr-22 18:52 086 4 gusting 8 23.3
2017-Apr-22 18:47 064 4 gusting 8 23.3
2017-Apr-22 18:42 052 5 gusting 10 23.3
2017-Apr-22 18:37 072 5 gusting 10 23.9
2017-Apr-22 18:32 076 5 gusting 10 23.9
2017-Apr-22 18:27 074 5 gusting 10 23.9
2017-Apr-22 18:22 069 5 gusting 11 23.9
2017-Apr-22 18:17 060 6 gusting 11 23.9
2017-Apr-22 18:12 054 6 gusting 11 23.9
2017-Apr-22 18:07 065 6 gusting 11 23.9
2017-Apr-22 18:02 034 6 gusting 11 24.4
2017-Apr-22 17:57 079 6 gusting 11 24.4
2017-Apr-22 17:52 082 6 gusting 11 24.4
2017-Apr-22 17:47 088 6 gusting 11 24.4
2017-Apr-22 17:42 063 6 gusting 10 24.4
2017-Apr-22 17:37 121 6 gusting 13 24.4
2017-Apr-22 17:32 053 7 gusting 13 24.4
2017-Apr-22 17:27 068 6 gusting 13 24.4
2017-Apr-22 17:22 069 5 gusting 12 24.4
2017-Apr-22 17:17 059 3 gusting 12 25.0
2017-Apr-22 17:12 049 3 gusting 9 25.0
2017-Apr-22 17:07 029 3 gusting 6 25.0
2017-Apr-22 17:02 005 3 gusting 8 25.0
2017-Apr-22 16:57 015 3 gusting 8 25.0
2017-Apr-22 16:52 341 4 gusting 9 24.4
2017-Apr-22 16:47 039 4 gusting 10 24.4
2017-Apr-22 16:42 080 5 gusting 11 24.4
2017-Apr-22 16:37 017 6 gusting 11 24.4
2017-Apr-22 16:32 067 6 gusting 12 25.0
2017-Apr-22 16:27 046 6 gusting 12 24.4
2017-Apr-22 16:22 036 6 gusting 12 24.4
2017-Apr-22 16:17 054 6 gusting 11 25.0
2017-Apr-22 16:12 089 6 gusting 11 25.0
2017-Apr-22 16:07 069 6 gusting 11 24.4
2017-Apr-22 16:02 063 6 gusting 11 25.0
2017-Apr-22 15:57 054 6 gusting 12 24.4
2017-Apr-22 15:52 065 6 gusting 13 24.4
2017-Apr-22 15:47 054 7 gusting 14 24.4
2017-Apr-22 15:42 061 7 gusting 14 24.4
2017-Apr-22 15:37 085 7 gusting 14 24.4
2017-Apr-22 15:32 053 7 gusting 14 24.4
2017-Apr-22 15:27 032 8 gusting 16 24.4
2017-Apr-22 15:22 064 7 gusting 16 24.4
2017-Apr-22 15:17 080 7 gusting 16 24.4
2017-Apr-22 15:12 094 7 gusting 15 24.4
2017-Apr-22 15:07 105 5 gusting 13 24.4
2017-Apr-22 15:02 051 6 gusting 13 24.4
2017-Apr-22 14:57 042 6 gusting 13 24.4
2017-Apr-22 14:52 066 6 gusting 11 24.4
2017-Apr-22 14:47 064 6 gusting 17 24.4
2017-Apr-22 14:42 058 6 gusting 17 24.4
2017-Apr-22 14:37 063 7 gusting 17 24.4
2017-Apr-22 14:32 078 7 gusting 17 23.9
2017-Apr-22 14:27 061 7 gusting 17 23.9
2017-Apr-22 14:22 080 6 gusting 17 23.9
2017-Apr-22 14:17 110 5 gusting 13 24.4
2017-Apr-22 14:12 070 5 gusting 13 23.9
2017-Apr-22 14:07 065 6 gusting 13 23.9
2017-Apr-22 14:02 068 6 gusting 15 23.9
2017-Apr-22 13:57 109 7 gusting 15 23.9
2017-Apr-22 13:52 092 8 gusting 13 23.9
2017-Apr-22 13:47 119 6 gusting 15 23.3
2017-Apr-22 13:42 076 6 gusting 15 23.3
2017-Apr-22 13:37 082 8 gusting 19 23.3
2017-Apr-22 13:32 107 8 gusting 19 23.3
2017-Apr-22 13:27 064 8 gusting 16 23.3
2017-Apr-22 13:22 103 8 gusting 16 23.3
2017-Apr-22 13:17 067 7 gusting 14 23.3
2017-Apr-22 13:12 061 6 gusting 15 23.3
2017-Apr-22 13:07 097 6 gusting 15 22.8
2017-Apr-22 13:02 051 8 gusting 15 22.8
2017-Apr-22 12:57 054 7 gusting 13 22.8
2017-Apr-22 12:52 078 6 gusting 13 22.8
2017-Apr-22 12:47 085 6 gusting 11 22.8
2017-Apr-22 12:42 087 5 gusting 16 22.8
2017-Apr-22 12:37 144 7 gusting 16 22.8
2017-Apr-22 12:32 139 8 gusting 16 22.8
2017-Apr-22 12:27 108 7 gusting 15 22.8
2017-Apr-22 12:22 076 6 gusting 13 22.2
2017-Apr-22 12:17 065 6 gusting 15 22.2
2017-Apr-22 12:12 038 6 gusting 15 22.2
2017-Apr-22 12:07 102 6 gusting 15 22.2
2017-Apr-22 12:02 110 6 gusting 18 21.7
2017-Apr-22 11:57 078 7 gusting 19 21.7
2017-Apr-22 11:52 086 7 gusting 19 21.7
2017-Apr-22 11:47 109 7 gusting 15 21.7
2017-Apr-22 11:42 061 7 gusting 15 21.7
2017-Apr-22 11:37 077 7 gusting 15 21.7
2017-Apr-22 11:32 109 8 gusting 15 21.1
2017-Apr-22 11:27 063 10 gusting 16 21.1
2017-Apr-22 11:22 124 9 gusting 19 21.1
2017-Apr-22 11:17 095 9 gusting 19 21.1
2017-Apr-22 11:12 101 8 gusting 19 21.1
2017-Apr-22 11:07 077 6 gusting 15 20.6
2017-Apr-22 11:02 104 6 gusting 16 20.6
2017-Apr-22 10:57 101 8 gusting 16 20.6
2017-Apr-22 10:52 081 8 gusting 17 20.6
2017-Apr-22 10:47 130 7 gusting 17 20.6
2017-Apr-22 10:42 106 8 gusting 17 20.6
2017-Apr-22 10:37 071 9 gusting 17 20.6
2017-Apr-22 10:32 104 10 gusting 17 20.6
2017-Apr-22 10:27 101 10 gusting 18 20.0
2017-Apr-22 10:22 096 11 gusting 18 20.0
2017-Apr-22 10:17 113 10 gusting 18 20.0
2017-Apr-22 10:12 086 10 gusting 18 20.0
2017-Apr-22 10:07 074 10 gusting 18 20.0
2017-Apr-22 10:02 104 10 gusting 17 20.0
2017-Apr-22 09:57 064 11 gusting 18 19.4
2017-Apr-22 09:52 084 10 gusting 19 19.4
2017-Apr-22 09:47 038 10 gusting 19 19.4
2017-Apr-22 09:42 085 10 gusting 19 19.4
2017-Apr-22 09:37 067 10 gusting 19 19.4
2017-Apr-22 09:32 075 10 gusting 19 19.4
2017-Apr-22 09:27 083 11 gusting 18 19.4
2017-Apr-22 09:22 065 11 gusting 18 19.4
2017-Apr-22 09:17 073 9 gusting 18 18.9
2017-Apr-22 09:12 097 9 gusting 18 18.9
2017-Apr-22 09:07 086 10 gusting 18 18.9
2017-Apr-22 09:02 096 11 gusting 18 18.3
2017-Apr-22 08:57 085 10 gusting 18 18.3
2017-Apr-22 08:52 074 9 gusting 16 18.3
2017-Apr-22 08:47 097 9 gusting 16 18.3
2017-Apr-22 08:42 082 8 gusting 16 17.8
2017-Apr-22 08:37 086 8 gusting 14 17.8
2017-Apr-22 08:32 074 8 gusting 13 17.8
2017-Apr-22 08:27 066 6 gusting 12 17.8
2017-Apr-22 08:22 075 6 gusting 13 17.8
2017-Apr-22 08:17 079 6 gusting 13 17.2
2017-Apr-22 08:12 093 7 gusting 14 17.2
2017-Apr-22 08:07 086 8 gusting 14 17.2
2017-Apr-22 08:02 109 8 gusting 14 16.7
2017-Apr-22 07:57 041 7 gusting 13 16.7
2017-Apr-22 07:52 126 7 gusting 13 16.7
2017-Apr-22 07:47 088 6 gusting 12 16.7
2017-Apr-22 07:42 086 6 gusting 13 16.7
2017-Apr-22 07:37 074 6 gusting 13 16.1
2017-Apr-22 07:32 080 7 gusting 13 16.1
2017-Apr-22 07:27 088 7 gusting 13 16.1
2017-Apr-22 07:22 094 6 gusting 11 16.1
2017-Apr-22 07:17 082 5 gusting 11 15.6
2017-Apr-22 07:12 094 6 gusting 10 15.6
2017-Apr-22 07:07 071 6 gusting 10 15.6
2017-Apr-22 07:02 055 6 gusting 14 15.6
2017-Apr-22 06:57 086 7 gusting 15 15.6
2017-Apr-22 06:52 077 8 gusting 15 15.6
2017-Apr-22 06:47 069 8 gusting 15 15.6
2017-Apr-22 06:42 102 8 gusting 15 15.0
2017-Apr-22 06:37 089 7 gusting 13 15.0
2017-Apr-22 06:32 089 6 gusting 13 15.0
2017-Apr-22 06:27 087 6 gusting 12 15.0
2017-Apr-22 06:22 130 6 gusting 12 15.0
2017-Apr-22 06:17 101 6 gusting 12 15.0
2017-Apr-22 06:12 086 6 gusting 12 15.0
2017-Apr-22 06:07 098 6 gusting 13 15.0
2017-Apr-22 06:02 085 6 gusting 13 15.0
2017-Apr-22 05:57 086 6 gusting 13 15.0
2017-Apr-22 05:52 082 6 gusting 11 15.0
2017-Apr-22 05:47 096 6 gusting 15 15.0
2017-Apr-22 05:42 116 7 gusting 15 15.0
2017-Apr-22 05:37 083 8 gusting 13 15.0
2017-Apr-22 05:32 080 7 gusting 12 15.0
2017-Apr-22 05:27 090 7 gusting 12 15.0
2017-Apr-22 05:22 088 7 gusting 12 15.0
2017-Apr-22 05:17 096 6 gusting 12 15.0
2017-Apr-22 05:12 079 6 gusting 9 15.0
2017-Apr-22 05:07 100 5 gusting 9 15.0
2017-Apr-22 05:02 071 4 gusting 9 15.0
2017-Apr-22 04:57 086 4 gusting 9 15.0
2017-Apr-22 04:52 065 4 gusting 7 15.0
2017-Apr-22 04:47 069 3 gusting 7 15.0
2017-Apr-22 04:42 102 3 gusting 6 15.0
2017-Apr-22 04:37 078 3 gusting 6 15.0
2017-Apr-22 04:32 085 4 gusting 6 15.0
2017-Apr-22 04:27 089 3 gusting 5 15.0
2017-Apr-22 04:22 066 2 gusting 5 15.0
2017-Apr-22 04:17 055 0 gusting 3 15.0
2017-Apr-22 04:12 055 0 gusting 3 15.0
2017-Apr-22 04:07 055 1 gusting 4 14.4
2017-Apr-22 04:02 074 1 gusting 4 14.4
2017-Apr-22 03:57 074 1 gusting 4 14.4
2017-Apr-22 03:52 065 1 gusting 4 13.9
2017-Apr-22 03:47 059 0 gusting 3 13.9
2017-Apr-22 03:42 005 0 gusting 4 13.9
2017-Apr-22 03:37 355 1 gusting 4 13.9
2017-Apr-22 03:32 355 1 gusting 4 13.9
2017-Apr-22 03:27 319 1 gusting 4 13.9
2017-Apr-22 03:22 336 1 gusting 3 13.9
2017-Apr-22 03:17 336 0 gusting 3 13.9
2017-Apr-22 03:12 336 13.9
2017-Apr-22 03:07 336 13.9
2017-Apr-22 03:02 336 13.9
2017-Apr-22 02:57 336 0 gusting 3 13.9
2017-Apr-22 02:52 336 0 gusting 3 13.3
2017-Apr-22 02:47 336 0 gusting 3 13.3
2017-Apr-22 02:42 336 0 gusting 3 13.3
2017-Apr-22 02:37 336 0 gusting 3 13.3
2017-Apr-22 02:32 336 0 gusting 2 13.3
2017-Apr-22 02:27 336 13.3
2017-Apr-22 02:22 336 0 gusting 4 12.8
2017-Apr-22 02:17 336 1 gusting 5 12.8
2017-Apr-22 02:12 330 1 gusting 5 12.8
2017-Apr-22 02:07 291 2 gusting 5 12.8
2017-Apr-22 02:02 298 2 gusting 4 13.3
2017-Apr-22 01:57 296 1 gusting 3 13.3
2017-Apr-22 01:52 304 0 gusting 3 13.3
2017-Apr-22 01:47 302 0 gusting 3 13.9
2017-Apr-22 01:42 302 0 gusting 3 13.9
2017-Apr-22 01:37 281 0 gusting 3 13.9
2017-Apr-22 01:32 340 13.9
2017-Apr-22 01:27 340 0 gusting 3 13.9
2017-Apr-22 01:22 336 0 gusting 3 13.9
2017-Apr-22 01:17 313 13.9
2017-Apr-22 01:12 275 0 gusting 3 13.9
2017-Apr-22 01:07 275 0 gusting 3 13.9
2017-Apr-22 01:02 275 0 gusting 3 13.9